Simultaneous Nadir Overpasses (SNOs) Predictions

Prediction of SNOs between GOES-17 and AQUA Satellite Orbit:

Table of predicted SNOs for the next 14.0 days since TLE Epoch: 7/2/2022
Index Date Time (GOES-17) GOES-17 Lat,Lon AQUA Lat,Lon Distance(km) Time Diff (sec)
1 07/03/2022 10:39:40 0.03,-137.20 -0.33,-135.56 187.28 80
2 07/03/2022 23:03:38 -0.04,-137.20 -0.77,-140.72 400.16 80
3 07/05/2022 22:51:03 -0.04,-137.19 -0.11,-137.66 52.50 80
4 07/07/2022 22:35:47 -0.03,-137.18 0.50,-134.59 294.67 80
5 07/08/2022 10:59:36 0.04,-137.18 0.61,-139.71 288.45 80
6 07/10/2022 10:44:21 0.03,-137.16 -0.07,-136.66 57.28 80
7 07/12/2022 10:31:46 0.01,-137.13 -0.76,-133.60 401.89 80
8 07/12/2022 22:55:44 -0.01,-137.12 -0.34,-138.76 186.62 80
9 07/14/2022 22:40:28 -0.00,-137.08 0.30,-135.70 157.38 80
10 07/15/2022 11:04:16 0.00,-137.07 0.80,-140.82 426.40 80
